EHI
0 0 0 0 0 0 0 0 0 0 0 0 0 0 1 2 2 1 2 5 8 7 6 6 8 9 8 6 5 4 4 3 1 0 0 0 0 0 0 0 1 2 3 3 3 3 1 0 0
0 0 0 0 0 0 0 0 0 0 0 0 0 1 2 2 2 1 2 6 8 7 6 7 9 9 8 7 6 5 5 4 2 0 0 0 0 0 0 0 0 1 3 3 3 3 2 1 0
0 0 0 0 0 0 0 0 0 0 0 0 0 1 2 2 1 1 2 5 7 6 7 10 12 11 9 7 6 5 4 4 2 1 0 0 0 0 0 0 0 1 2 2 3 3 2 1 0
0 0 0 0 0 0 0 0 0 0 0 0 1 2 3 2 1 0 1 3 5 6 7 11 14 13 10 6 5 5 4 4 3 1 0 0 0 0 0 0 0 0 1 1 2 3 3 1 0
0 0 0 0 0 0 0 0 0 0 0 0 1 2 3 2 1 1 0 1 4 5 6 8 11 13 11 6 4 4 5 5 4 3 1 1 0 0 0 0 0 0 0 1 2 3 2 1 1
0 0 0 0 0 0 0 0 0 0 0 0 1 2 3 3 1 1 0 1 3 4 4 5 8 10 9 7 4 3 4 4 3 2 2 2 1 1 0 0 0 0 1 2 3 2 1 1 0
0 0 0 0 0 0 0 0 0 0 0 0 1 2 3 3 3 2 1 2 3 3 4 4 5 7 8 7 4 3 3 3 2 1 2 3 2 2 1 1 0 0 1 2 1 0 0 0 0
0 0 0 0 0 0 0 0 0 0 0 0 0 2 3 4 5 5 5 5 5 4 3 3 4 4 5 5 4 3 2 2 2 1 1 2 3 2 1 0 0 0 1 1 1 1 0 0 0
0 0 0 0 0 0 0 0 0 0 0 0 1 2 4 5 7 8 8 8 6 5 4 3 3 3 4 4 4 3 2 2 3 3 2 2 3 3 2 1 0 1 1 2 2 2 1 0 0
0 0 0 0 0 0 0 0 0 0 0 0 1 2 4 6 8 9 9 7 5 6 5 4 4 4 4 5 5 5 4 3 3 3 3 3 3 4 3 1 1 1 1 2 2 2 1 0 0
0 0 0 0 0 0 0 0 0 0 0 0 0 1 3 4 6 8 7 5 5 6 6 5 4 4 4 5 5 4 4 4 3 3 2 2 2 3 2 1 0 0 0 1 1 1 0 0 0
0 0 0 0 0 0 0 0 0 0 0 0 0 0 1 3 4 5 5 4 4 6 6 6 4 3 3 4 3 3 3 3 2 1 1 1 1 1 1 0 0 0 0 0 0 0 0 0 0
0 0 0 0 0 0 0 0 0 0 0 0 0 0 1 2 3 3 2 2 3 5 5 5 4 4 3 3 2 2 2 2 1 0 0 0 0 0 0 0 0 0 0 0 0 0 0 0 0
0 0 0 0 0 0 0 0 0 0 0 0 0 0 0 1 2 3 2 2 3 5 5 5 5 5 4 3 2 2 1 1 0 0 0 0 0 0 0 0 0 0 0 0 0 0 0 0 0
0 0 0 0 0 0 0 0 0 0 0 0 0 0 0 0 1 2 2 3 4 4 4 4 5 6 5 4 4 3 1 0 0 0 0 0 0 0 0 0 0 0 0 0 0 0 0 0 0
0 0 0 0 0 0 0 0 0 0 0 0 0 0 0 0 0 1 3 3 3 3 3 3 4 5 5 5 5 3 1 0 0 0 0 0 0 0 0 0 0 0 0 0 0 0 0 0 0
0 0 0 0 0 0 0 0 0 0 0 0 0 0 0 0 0 1 2 3 3 3 3 3 3 4 4 4 3 2 0 0 0 0 0 0 0 0 0 0 0 0 0 0 0 0 0 0 0
0 0 0 0 0 0 0 0 0 0 0 0 0 0 0 0 0 0 1 2 2 2 3 3 2 3 3 2 1 0 0 0 0 0 0 0 0 0 0 0 0 0 0 0 0 0 0 0 0
0 0 0 0 0 0 0 0 0 0 0 0 0 0 0 0 0 0 0 1 1 1 1 2 2 2 1 1 0 0 0 0 0 0 0 0 0 0 0 0 0 0 0 0 0 0 0 0 0
0 0 0 0 0 0 0 0 0 0 0 0 0 0 0 0 0 0 0 0 0 0 0 1 1 1 0 0 0 0 0 0 0 0 0 0 0 0 0 0 0 0 0 0 0 0 0 0 0
0 0 0 0 0 0 0 0 0 0 0 0 0 0 0 0 0 0 0 0 0 0 0 0 0 0 0 0 0 0 0 0 0 0 0 0 0 0 0 0 0 0 0 0 0 0 0 0 0
0 0 0 0 0 0 0 0 0 0 0 0 0 0 0 0 0 0 0 0 0 0 0 0 0 0 0 0 0 0 0 0 0 0 0 0 0 0 0 0 0 0 0 0 0 0 0 0 0
0 0 0 0 0 0 0 0 0 0 0 0 0 0 0 0 0 0 0 0 0 0 0 0 0 0 0 0 0 0 0 0 0 0 0 0 0 0 0 0 0 0 0 0 0 0 0 0 0
0 0 0 0 0 0 0 0 0 0 0 0 0 0 0 0 0 0 0 0 0 0 0 0 0 0 0 0 0 0 0 0 0 0 0 0 0 0 0 0 0 0 0 0 0 0 0 0 0
0 0 0 0 0 0 0 0 0 0 0 0 0 0 0 0 0 0 0 0 0 0 0 0 0 0 0 0 0 0 0 0 0 0 0 0 0 0 0 0 0 0 0 0 0 0 0 0 0
0 0 0 0 0 0 0 0 0 0 0 0 0 0 0 0 0 0 0 0 0 0 0 0 0 0 0 0 0 0 0 0 0 0 0 0 0 0 0 0 0 0 0 0 0 0 0 0 0
0 0 0 0 0 0 0 0 0 0 0 0 0 0 0 0 0 0 0 0 0 0 0 0 0 0 0 0 0 0 0 0 0 0 0 0 0 0 0 0 0 0 0 0 0 0 0 0 0
0 0 0 0 0 0 0 0 0 0 0 0 0 0 0 0 0 0 0 0 0 0 0 0 0 0 0 0 0 0 0 0 0 0 0 0 0 0 0 0 0 0 0 0 0 0 0 0 0
0 0 0 0 0 0 0 0 0 0 0 0 0 0 0 0 0 0 0 0 0 0 0 0 0 0 0 0 0 0 0 0 0 0 0 0 0 0 0 0 0 0 0 0 0 0 0 0 0
0 0 0 0 0 0 0 0 0 0 0 0 0 0 0 0 0 0 0 0 0 0 0 0 0 0 0 0 0 0 0 0 0 0 0 0 0 0 0 0 0 0 0 0 0 0 0 0 0
Wind_Speed
12 10 6 2 2 4 7 6 3 1 2 4 5 4 5 6 5 6 3 6 9 9 9 9 9 8 8 7 8 7 8 8 7 8 8 9 9 9 9 9 9 10 10 10 10 11 11 11 11
10 7 3 3 4 5 6 6 3 1 4 3 3 3 3 6 7 7 4 6 9 9 9 8 10 9 8 8 8 7 7 7 7 7 8 9 9 9 9 9 9 9 9 9 10 10 11 11 10
9 6 3 3 5 6 4 1 3 5 4 2 1 3 4 4 6 5 5 7 8 8 8 9 10 9 8 8 8 7 7 7 7 8 8 8 8 8 8 8 8 9 9 9 9 9 10 10 9
4 3 4 5 9 7 4 1 4 4 2 0 2 3 4 6 4 6 7 7 8 8 8 9 9 9 8 8 7 7 7 7 7 8 8 8 8 8 8 8 8 8 8 8 8 9 9 8 8
3 3 5 7 10 6 3 1 2 3 3 3 2 3 4 4 7 8 6 7 7 7 8 8 8 8 8 7 7 6 6 6 6 7 7 8 8 8 8 7 7 7 7 8 8 8 8 7 7
3 3 5 8 9 6 4 1 1 2 2 1 1 2 4 5 6 6 5 5 7 7 7 7 7 7 7 7 6 5 5 5 5 6 7 7 8 8 8 7 7 7 7 7 8 7 7 6 6
3 4 7 8 6 6 3 1 2 2 2 0 1 1 5 5 5 5 5 5 6 7 6 5 5 5 6 6 5 5 4 4 4 5 6 6 7 8 8 7 7 7 7 7 7 7 6 6 5
3 3 6 7 7 5 1 1 2 2 1 2 3 1 4 5 4 4 4 4 6 6 6 4 4 4 3 3 4 4 4 3 3 4 5 5 6 7 7 7 7 7 6 6 7 7 6 5 4
3 3 5 5 5 2 0 1 2 3 2 2 3 4 5 7 5 4 3 3 4 5 4 4 3 3 2 2 4 4 3 3 3 3 4 4 4 5 5 6 6 7 7 6 6 6 6 4 3
3 4 5 3 4 2 1 1 1 2 1 1 1 5 6 5 5 5 4 3 4 3 3 3 3 2 2 2 3 2 2 2 2 2 2 2 2 3 4 6 7 7 7 7 6 6 5 3 2
4 4 3 3 5 4 3 3 2 2 3 2 2 4 5 5 4 3 2 2 3 3 3 3 2 2 2 1 2 1 1 1 1 2 2 2 2 2 3 3 3 4 5 4 4 4 3 3 2
4 4 3 2 4 3 2 2 3 2 1 2 3 3 3 4 4 3 2 2 2 2 3 3 2 2 2 1 1 2 1 1 1 1 2 1 1 2 2 2 3 3 2 3 3 2 3 3 3
7 4 3 1 1 2 2 3 3 3 1 1 3 3 2 1 2 2 2 2 2 2 3 3 2 2 1 1 1 1 1 1 1 1 1 2 1 2 2 2 3 3 3 3 3 3 2 2 2
2 3 3 3 3 2 3 4 3 4 1 1 1 1 1 1 2 1 1 1 1 1 2 2 2 2 1 1 1 1 1 1 1 1 1 1 1 1 2 2 3 3 3 3 3 3 3 2 2
2 3 4 5 4 3 3 5 7 5 3 3 2 2 2 1 2 2 2 1 1 1 1 1 2 2 1 1 1 1 1 1 1 1 1 1 1 1 2 2 2 2 3 3 2 3 2 2 2
4 4 4 4 5 4 3 6 3 4 4 4 3 2 2 1 2 2 2 1 1 1 1 1 1 1 1 1 1 1 1 1 1 1 1 1 1 1 1 2 2 2 2 3 3 2 2 2 2
5 5 5 4 4 4 5 5 2 1 3 3 3 2 2 1 1 2 2 2 1 1 1 1 0 1 1 1 1 1 1 1 1 1 1 1 1 2 2 2 2 2 2 2 3 2 2 2 2
4 5 5 6 4 4 6 6 3 2 3 3 2 2 2 1 1 2 2 2 2 1 1 1 0 1 1 1 1 1 1 1 1 1 1 1 1 2 2 2 2 2 2 2 2 3 3 2 2
4 5 6 3 2 4 7 8 5 4 3 3 3 2 2 2 1 2 2 2 2 1 2 1 1 0 1 1 1 1 1 1 1 1 1 1 1 2 2 2 2 2 2 3 3 2 3 2 2
6 7 5 1 1 3 5 8 5 5 5 4 3 3 2 1 1 1 1 2 2 2 1 1 1 1 0 1 1 1 1 1 1 1 1 1 2 2 2 2 2 2 2 3 3 2 1 2 2
6 5 4 3 3 3 4 7 7 6 5 4 3 2 2 2 1 1 1 2 1 2 1 2 2 1 0 0 0 0 0 0 0 1 1 1 2 2 2 2 2 2 2 3 3 3 3 2 2
5 3 4 3 3 3 3 5 5 6 5 5 4 3 2 1 1 1 1 1 1 1 1 1 2 1 1 1 1 1 1 1 2 1 1 1 1 1 2 2 2 3 2 2 3 3 2 3 3
2 2 3 4 4 4 5 5 6 4 5 6 5 4 2 1 1 1 1 1 1 2 1 1 2 2 1 1 1 1 1 1 1 1 2 2 1 1 1 1 2 2 2 2 3 3 3 3 3
1 1 2 3 2 6 7 6 6 4 6 6 5 4 3 2 1 1 1 2 2 2 1 1 1 2 1 1 1 1 2 2 2 2 2 2 1 1 1 1 1 2 2 3 3 3 3 3 3
1 1 1 2 4 6 4 5 6 3 2 3 4 4 3 2 2 2 2 2 1 1 1 1 2 2 1 1 1 1 2 2 2 2 2 2 2 1 2 2 2 2 2 2 2 2 3 3 4
4 4 3 4 4 2 3 7 4 3 3 3 3 3 3 2 2 2 1 1 1 1 1 2 2 2 2 1 1 1 1 1 1 2 2 2 2 2 2 2 2 2 2 2 2 3 3 3 4
3 4 1 1 2 3 5 3 2 2 3 3 2 2 2 2 1 1 1 1 2 2 2 1 1 2 2 2 2 1 1 1 1 1 1 2 2 2 2 3 3 2 3 3 3 2 3 3 4
2 1 1 2 3 5 5 5 4 5 4 3 2 2 1 1 1 1 1 2 2 2 2 2 1 1 2 2 2 2 1 1 1 1 1 1 1 2 2 2 2 2 2 2 3 3 3 3 4
4 3 3 3 3 3 4 3 1 4 4 3 2 1 1 1 1 1 1 2 2 2 2 2 2 2 2 2 1 1 1 1 1 1 1 1 1 1 2 2 2 2 2 2 2 3 3 4 4
3 4 4 3 4 3 3 5 2 4 4 3 2 2 2 2 1 1 1 2 2 2 2 2 2 2 2 2 1 1 2 1 2 2 2 2 2 2 2 2 2 3 3 3 3 4 3 4 4
Wind_Direction
298 277 259 250 241 232 241 247 250 106 53 39 23 22 37 41 37 101 139 102 108 117 121 123 119 122 118 120 128 129 127 124 120 120 120 116 113 110 109 109 106 103 99 95 93 91 90 88 86
291 280 261 236 237 235 236 222 223 99 81 66 32 24 61 76 78 103 116 106 115 117 122 122 123 121 117 114 119 125 128 127 126 124 125 122 119 114 110 110 108 105 103 100 97 95 92 90 88
274 266 250 232 233 240 253 111 106 88 77 94 87 20 44 67 84 97 108 116 114 114 116 117 122 121 117 116 113 119 126 127 127 126 125 127 124 120 117 112 111 110 106 104 104 101 98 95 94
264 237 244 243 246 249 269 22 94 111 106 204 122 89 77 43 59 97 111 113 111 111 111 118 116 118 118 116 115 112 119 128 132 131 128 127 127 123 120 116 114 113 112 110 109 105 103 101 99
245 241 229 235 243 251 259 316 116 155 163 192 165 115 90 72 87 103 113 116 115 112 111 120 115 114 114 116 116 115 115 122 132 135 136 134 132 129 126 121 119 118 115 114 113 110 106 105 104
240 238 233 232 234 232 239 207 213 209 189 171 152 137 101 102 102 112 114 115 111 109 111 121 114 113 115 115 112 115 123 125 129 138 139 138 139 137 135 130 127 126 121 116 120 120 116 115 111
249 243 246 251 247 232 221 162 198 211 208 216 316 135 122 111 105 114 116 111 106 107 111 119 126 125 121 120 118 120 119 127 135 141 143 141 145 145 144 141 137 133 131 122 124 123 122 122 117
281 273 250 250 254 247 224 125 35 18 335 8 4 68 119 122 110 105 102 105 108 109 115 121 129 131 134 135 130 130 129 126 139 145 153 150 151 152 153 149 148 146 141 134 134 132 130 130 126
278 254 243 248 256 252 140 123 88 32 24 8 37 56 88 117 118 119 110 102 109 114 122 129 128 129 127 141 139 138 140 137 134 135 154 162 163 161 161 158 157 155 152 149 149 149 146 144 154
224 237 242 300 336 358 15 54 120 155 184 256 112 94 106 124 130 140 149 149 138 129 128 128 135 135 134 141 138 146 147 151 155 149 155 174 172 165 161 159 159 160 162 159 162 164 164 168 179
218 241 268 319 2 15 15 1 337 245 229 230 197 136 132 130 131 150 160 164 151 139 127 119 125 132 133 132 138 138 144 159 175 169 166 177 176 156 149 146 150 157 164 164 168 174 184 190 182
238 255 272 312 356 347 336 322 301 289 291 10 31 73 120 139 151 168 170 151 129 134 135 129 138 132 133 135 148 147 145 159 170 179 173 154 165 160 160 159 162 166 171 175 177 185 188 188 190
235 251 273 313 316 326 316 266 277 263 226 38 55 66 88 132 143 149 137 129 119 127 133 142 140 135 143 142 153 139 153 168 181 174 176 150 159 171 170 173 170 171 169 174 183 181 179 190 199
244 249 254 258 242 242 254 261 253 244 186 144 151 148 141 141 120 95 75 72 100 134 134 142 144 139 143 149 154 151 151 155 151 147 145 143 149 171 176 178 174 177 172 175 183 178 170 180 187
272 253 248 233 218 205 229 249 230 217 191 204 208 184 166 143 111 96 83 54 53 62 75 123 150 143 155 164 177 156 156 150 146 141 134 133 138 168 181 178 187 184 177 181 181 183 167 181 175
224 233 235 209 205 190 211 247 204 180 186 208 199 185 149 135 115 103 97 74 51 68 90 98 124 148 165 174 190 168 160 144 149 150 151 158 161 161 176 178 195 190 183 183 180 179 175 185 179
202 226 231 214 195 190 212 253 179 160 187 211 197 174 157 137 110 94 95 99 72 61 106 107 111 166 177 185 182 172 158 141 152 153 161 182 185 185 180 185 194 189 183 193 190 183 175 178 185
215 231 233 218 197 223 233 248 222 203 220 216 201 189 176 173 151 101 85 87 88 61 90 119 103 168 189 171 136 124 137 153 181 177 185 200 211 205 183 186 192 180 182 191 190 186 186 177 173
271 256 255 254 223 241 240 248 231 208 217 221 211 202 189 177 123 100 97 89 87 70 58 65 78 171 147 147 165 172 191 197 207 199 186 208 249 229 193 185 191 191 194 197 186 184 193 196 165
264 269 266 271 265 280 268 261 242 211 215 218 212 200 190 159 118 126 111 97 77 69 53 30 35 15 81 158 192 199 188 196 195 188 196 216 235 232 203 190 191 197 198 199 196 172 187 218 187
247 257 268 282 313 278 295 276 229 213 203 201 207 198 180 175 162 143 127 109 80 52 36 16 0 343 292 207 138 106 80 95 133 200 217 232 226 219 218 206 197 199 197 202 205 193 184 202 224
241 264 281 276 272 255 216 274 236 196 193 200 203 195 181 163 156 145 119 109 95 65 38 14 353 336 279 231 193 192 202 201 215 204 211 229 252 250 227 212 209 207 205 207 210 204 197 187 206
246 286 274 262 252 277 233 246 263 183 206 206 197 189 177 159 149 116 113 102 70 55 38 2 341 331 325 307 235 210 225 232 212 198 200 213 229 245 245 220 207 212 213 211 213 215 208 204 203
185 299 286 265 230 252 222 221 258 199 208 198 187 175 152 126 94 82 73 75 66 49 27 3 335 323 322 317 283 238 225 225 234 217 209 213 213 223 232 239 210 220 224 223 217 215 213 212 215
202 149 196 221 224 240 189 217 244 186 177 169 163 151 136 113 83 69 60 51 43 39 15 355 341 332 331 331 298 259 243 218 228 228 212 213 219 222 224 229 224 226 227 228 225 219 222 218 216
212 204 194 222 240 259 208 226 232 163 129 101 114 129 117 99 83 59 52 46 24 11 8 357 340 332 335 323 291 279 269 240 231 236 231 222 218 217 219 213 222 235 229 230 224 230 227 222 223
209 218 241 271 279 269 237 223 230 130 119 117 116 110 113 104 84 46 14 10 11 1 347 336 333 331 330 320 308 291 276 265 254 249 244 245 234 227 215 214 211 227 231 232 226 225 235 229 229
240 234 174 203 230 256 253 228 212 181 183 166 152 135 102 83 64 34 356 351 7 0 346 351 352 332 322 327 320 313 314 301 289 281 255 256 260 248 229 231 216 227 240 238 233 231 237 241 239
199 207 207 223 242 233 261 258 33 154 146 149 148 115 76 47 44 29 359 356 349 358 358 354 350 344 338 330 323 325 312 309 310 291 284 275 271 263 250 243 225 223 241 242 238 243 240 242 250
239 211 187 196 234 231 257 268 48 94 82 77 65 59 52 38 23 21 360 353 348 350 353 346 346 340 326 318 322 327 323 314 302 294 289 279 269 266 263 256 243 236 241 240 238 249 251 245 246